Regional Weather Roundup
Issued by NWS

Home | Current Version | Previous Version | Text Only | Print | Product List | Glossary On
Versions: 1 2 3 4 5 6 7 8 9 10 11 12 13 14 15 16 17 18 19 20 21 22 23 24 25 26 27 28 29 30 31 32 33 34 35 36 37 38 39 40 41 42 43 44 45 46 47 48 49 50
000
ASCA42 TJSJ 270810
RWRPR
PUERTO RICO/U.S. VIRGIN ISLANDS HOURLY WEATHER ROUNDUP
NATIONAL WEATHER SERVICE SAN JUAN PR
400 AM AST TUE SEP 27 2016

PRZ001>002-007>008-010-270900-
PUERTO RICO

CITY           SKY/WX    TMP DP  RH WIND       PRES   REMARKS
SAN JUAN LMM   CLOUDY    81  75  83 CALM      29.92S
PONCE          CLEAR     75  72  88 CALM      29.95
CEIBA          LGT RAIN  79  79 100 SW6       29.94S
$$

VIZ001>002-270900-
U.S. VIRGIN ISLANDS

CITY           SKY/WX    TMP DP  RH WIND       PRES   REMARKS
CHARLOTTE AMA  CLEAR     82  79  89 E6        29.91R HX  93
CHRISTIANSTED  CLEAR     79  79 100 NE6       29.91S
$$

HOURLY WEATHER ROUNDUP FOR THE NEWS MEDIA

CITY           SKY/WX    TMP DP  RH WIND       PRES   REMARKS
ORLANDO        CLEAR     72  71  97 CALM      29.92F
NEW YORK       CLOUDY    68  65  90 SW18      29.91F
NEWARK         LGT RAIN  66  64  93 SW9       29.90F
CHICAGO        CLEAR     55  39  54 W10       29.87F
HARTFORD       CLOUDY    67  59  75 S10       29.94F
BOSTON         CLOUDY    61  53  75 S6        29.94F
DALLAS         CLOUDY    68  60  75 N6        30.12S
PHILADELPHIA   CLOUDY    69  64  84 SW13      29.92F
LOS ANGELES    PTCLDY    75  52  44 CALM      29.86F
WASHINGTON DC  LGT RAIN  65  63  93 SW3       29.95F


USA.gov is the U.S. government's official web portal to all federal, state and local government web resources and services.